Hourly Data Report for October 31, 2016

All times are specified in Local Standard Time (LST). Add 1 hour to adjust for Daylight Saving Time where and when it is observed.

ARVIAT A
NUNAVUT

61°05'38.000" N
94°04'18.000" W
10.40 m
2300427
71174
YEK

Download Data

Hourly Data (October 2016)
Hourly Data Report for October 31, 2016
Temp Definition
°C
Dew Point Temp Definition
°C
Rel Hum Definition
%
Wind Dir Definition
10's deg

Wind Spd Definition
km/h
Visibility Definition
km
Stn Press Definition
kPa
Hmdx Definition


Wind Chill Definition


Weather Definition


TIME
00:00 Legend Double Dagger -12.2 -13.7 89 31 24 16.1 101.32   -21 LegendNANA
01:00 Legend Double Dagger -13.0 -14.5 89 29 17 16.1 101.35   -21 LegendNANA
02:00 Legend Double Dagger -13.3 -14.5 91 29 13 16.1 101.34   -20 LegendNANA
03:00 Legend Double Dagger -13.5 -14.5 92 30 15 16.1 101.29   -21 LegendNANA
04:00 Legend Double Dagger -13.7 -14.7 92 26 11 16.1 101.31   -20 LegendNANA
05:00 Legend Double Dagger -11.4 -12.2 94 31 18 16.1 101.27   -19 Snow
06:00 Legend Double Dagger -11.0 -11.8 94 33 15 16.1 101.24   -18 Snow
07:00 Legend Double Dagger -11.2 -12.1 93 33 17 16.1 101.21   -19 LegendNANA
08:00 Legend Double Dagger -11.0 -11.9 93 32 13 16.1 101.23   -17 LegendNANA
09:00 Legend Double Dagger -12.3 -13.1 94 32 13 16.1 101.22   -19 LegendNANA
10:00 Legend Double Dagger -10.2 -10.5 98 34 15 1.2 101.21   -17 Snow
11:00 Legend Double Dagger -9.6 -10.0 97 34 18 16.1 101.20   -17 Snow
12:00 Legend Double Dagger -9.4 -9.8 97 35 18 16.1 101.17   -17 LegendNANA
13:00 Legend Double Dagger -9.4 -9.8 97 34 21 16.1 101.14   -17 Snow
14:00 Legend Double Dagger -9.0 -9.5 96 34 17 16.1 101.17   -16 Snow
15:00 Legend Double Dagger -8.8 -9.2 97 34 21 16.1 101.15   -17 LegendNANA
16:00 Legend Double Dagger -8.5 -8.9 97 1 13 16.1 101.15   -14 LegendNANA
17:00 Legend Double Dagger -9.0 -9.4 97 1 13 16.1 101.14   -15 LegendNANA
18:00 Legend Double Dagger -9.1 -9.5 97 33 13 16.1 101.14   -15 LegendNANA
19:00 Legend Double Dagger -9.1 -9.5 97 36 17 16.1 101.13   -16 LegendNANA
20:00 Legend Double Dagger -10.1 -10.6 96 35 17 16.1 101.09   -17 LegendNANA
21:00 Legend Double Dagger -9.9 -10.4 96 36 17 16.1 101.08   -17 LegendNANA
22:00 Legend Double Dagger -10.1 -10.7 95 35 17 16.1 101.06   -17 LegendNANA
23:00 Legend Double Dagger -10.8 -11.3 96 33 21 16.1 101.06   -19 LegendNANA

Notes on Data Quality.

Legend

  • E = Estimated
  • M = Missing
  • NA = Not Available
  • ‡ = Partner data that is not subject to review by the National Climate Archives
Date modified: